Flag for Brazil Weather past 2 weeks in Rio de Janeiro, Rio de Janeiro, Brazil

70 °F

Passing clouds.

Feels Like: 70 °F
Forecast: 65 / 80 °F
Wind: 16 mph from Northeast

Location: Rio De Janeiro Airport

Current Time: Oct 7, 2015 at 12:21:03 AM

Latest Report: Oct 7, 2015 at 12:00 AM

Visibility: N/A

Pressure: 30.07 "Hg

Humidity: 78%

Dew point: 63 °F

Location of Rio de JaneiroLocation

Historic Weather in Rio de Janeiro — Graph


Rio de Janeiro temperature yesterday

Maximum temperature yesterday: 77 °F (at 10:00 AM)
Minimum temperature yesterday: 66 °F (at 4:00 AM)
Average temperature yesterday: 72 °F

Past Weeks' High & Low Weather Summary

High99 °F (Sep 24, 3:00 PM)100% (Sep 22, 12:00 AM)30.18 "Hg (Sep 22, 12:00 AM)
Low66 °F (Oct 5, 6:00 AM)36% (Sep 25, 2:00 PM)29.71 "Hg (Sep 24, 2:00 PM)
Average76 °F83%29.93 "Hg
* Reported Sep 21 11:00 PM — Oct 6 11:00 PM, Rio de Janeiro, Weather by CustomWeather, © 2015

Note: Actual official high and low records may vary slightly from our data, if they occured in-between our weather recording intervals... More about our weather records


Rio de Janeiro weather history for previous 24 hours

Time TempWeatherWind HumidityBarometerVisibility
11:00 PM
Tue, Oct 6
72 °FPassing clouds.17 mph73%30.09 "HgN/A
10:00 PM72 °FPassing clouds.12 mph73%30.12 "HgN/A
9:00 PM72 °FPassing clouds.17 mph73%30.12 "HgN/A
8:00 PM73 °FPassing clouds.15 mph69%30.07 "HgN/A
7:00 PM73 °FPassing clouds.8 mph69%30.09 "HgN/A
6:00 PM73 °FPassing clouds.6 mph74%30.07 "HgN/A
5:00 PM75 °FPassing clouds.12 mph74%30.07 "HgN/A
4:00 PM77 °FPartly sunny.10 mph69%30.07 "HgN/A
3:00 PM77 °FPartly sunny.14 mph69%30.07 "HgN/A
2:00 PM77 °FBroken clouds.12 mph65%30.07 "HgN/A
1:00 PM77 °FBroken clouds.13 mph65%30.09 "HgN/A
12:00 PM77 °FBroken clouds.8 mph65%30.12 "HgN/A
11:00 AM75 °FBroken clouds.9 mph65%30.12 "HgN/A
10:00 AM77 °FBroken clouds.5 mph65%30.15 "HgN/A
9:00 AM73 °FPartly sunny.5 mph74%30.15 "HgN/A
8:00 AM72 °FPartly sunny.5 mph78%30.15 "HgN/A
7:00 AM70 °FPartly sunny.5 mph78%30.15 "HgN/A
6:00 AM66 °FScattered clouds.6 mph88%30.12 "HgN/A
5:00 AM66 °FScattered clouds.3 mph83%30.12 "HgN/A
4:00 AM66 °FPassing clouds.3 mph83%30.09 "HgN/A
3:00 AM68 °FPassing clouds.2 mph83%30.09 "HgN/A
2:00 AM68 °FPassing clouds.5 mph83%30.12 "HgN/A
1:00 AM68 °FPassing clouds.6 mph88%30.12 "HgN/A
12:00 AM70 °FPassing clouds.5 mph69%30.15 "HgN/A
Weather by CustomWeather, © 2015

See weather overviewHow to use our weather pages